[[{"header":{"parameterUnit":"m.s-1","parameterCategory":1,"la1":30.2991,"la2":30.254,"lo1":-89.0895,"lo2":-89.0444,"dy":0.0017,"dx":0.0017,"nx":28,"ny":28,"refTime":"2025-04-18T21:00:00:Z","depth":0,"parameterNumber":2,"parameterNumberName":"U-component_of_WINDS"},"data":[0,0,0,0,0,0,0,0,0,0,0,0,0,0,0,0,0,0,0,0,0,0,0,0,0,0,0,0,0,0,0,0,0,0,0,0,0,0,0,0,0,0,0,0,0,0,0,0,0,0,0,0,0,0,0,0,0,0,-5.7428,-5.7429,0,-5.7498,-5.7499,-5.7499,-5.7422,-5.7419,-5.7416,-5.7413,-5.748,-5.7484,-5.7489,0,0,0,0,0,0,0,0,0,0,0,0,0,-5.7225,-5.7229,-5.7428,-5.7429,-5.743,-5.7498,-5.7499,-5.75,-5.7422,-5.7419,-5.7415,-5.7412,-5.7478,-5.7484,-5.7489,0,0,0,0,0,0,0,0,0,0,0,0,0,-5.7306,-5.723,-5.7428,-5.74,-5.7398,-5.7497,-5.7499,-5.75,-5.7423,-5.7419,-5.7414,-5.741,-5.7477,-5.7483,-5.749,-5.762,0,0,-5.7511,-5.7513,0,0,0,0,0,0,0,0,-5.7301,-5.7313,-5.7403,-5.7402,-5.74,-5.7447,-5.7451,-5.754,-5.7424,-5.7413,-5.7413,-5.7408,-5.7472,-5.7479,-5.7501,-5.7623,-5.7625,-5.7511,-5.7515,-5.7518,-5.752,0,0,0,0,0,0,0,-5.7296,-5.731,-5.7456,-5.7404,-5.7403,-5.7382,-5.7389,-5.7468,-5.7466,-5.7414,-5.7408,-5.7418,-5.747,-5.7495,-5.7502,-5.7626,-5.7511,-5.7517,-5.7521,-5.7524,-5.7856,-5.786,0,0,0,0,0,0,-5.7294,-5.7306,-5.7453,-5.7458,-5.7339,-5.7389,-5.7397,-5.7436,-5.7465,-5.7466,-5.7422,-5.7414,-5.7486,-5.7495,-5.7505,-5.7656,-5.7518,-5.7524,-5.7528,-5.7851,-5.7857,-5.7862,0,0,0,0,0,0,-5.729,-5.7308,-5.7451,-5.738,-5.7397,-5.7398,-5.7442,-5.744,-5.7464,-5.7471,-5.747,-5.7447,-5.7483,-5.7495,-5.7591,-5.7658,-5.7527,-5.7534,-5.7846,-5.7853,-5.786,-5.7962,0,0,0,0,0,0,-5.7284,-5.7307,-5.7357,-5.7382,-5.7401,-5.7538,-5.7446,-5.7444,-5.7477,-5.7468,-5.7495,-5.7495,-5.748,-5.7582,-5.7598,-5.7665,-5.7539,-5.784,-5.7849,-5.7857,-5.7953,-5.7972,-5.7989,0,0,0,0,0,-5.7277,-5.7382,-5.736,-5.7378,-5.7464,-5.7542,-5.7552,-5.7534,-5.7483,-5.7532,-5.7536,-5.7494,-5.7649,-5.7592,-5.761,-5.768,-5.7835,-5.7846,-5.7857,-5.7945,-5.7968,-5.7988,0,0,0,0,0,0,-5.7363,-5.7385,-5.736,-5.7477,-5.7508,-5.7529,-5.759,-5.756,-5.7605,-5.7594,-5.7568,-5.7575,-5.7677,-5.7688,-5.7625,-5.7806,-5.7733,-5.7748,-5.7794,-5.7817,-5.7834,-5.7828,-5.7545,0,0,0,0,0,-5.7396,-5.7459,-5.7474,-5.7576,-5.7593,-5.759,-5.7623,-5.7606,-5.7637,-5.7649,-5.766,-5.7691,-5.7746,-5.7782,-5.7833,-5.7956,-5.7959,-5.8012,-5.803,-5.8045,-5.8056,-5.812,-5.8143,-5.7897,-5.7897,-5.7897,0,0,-5.7464,-5.7484,-5.7525,-5.7594,-5.7616,-5.768,-5.7601,-5.7672,-5.7719,-5.7659,-5.7751,-5.7761,-5.7793,-5.7902,-5.7951,-5.7914,-5.8126,-5.8058,-5.807,-5.8074,-5.8133,-5.8157,-5.8177,-5.7905,-5.7903,-5.7902,0,0,-5.7619,-5.7642,-5.7728,-5.7753,-5.7788,-5.7785,-5.7806,-5.7832,-5.7836,-5.7928,-5.7885,-5.794,-5.8036,-5.806,-5.8085,-5.8251,-5.8213,-5.8269,-5.836,-5.8422,-5.8442,-5.8459,-5.8516,-5.8537,-5.8281,-5.8282,-5.8282,0,-5.7698,-5.7794,-5.7776,-5.785,-5.7881,-5.7833,-5.7919,-5.7943,-5.7993,-5.8015,-5.7974,-5.8093,-5.8112,-5.8225,-5.8266,-5.8289,-5.831,-5.8264,-5.8441,-5.8458,-5.8473,-5.8527,-5.8549,-5.8288,-5.8287,-5.8287,-5.8286,0,-5.7889,-5.7956,-5.8021,-5.8072,-5.8111,-5.8191,-5.8183,-5.8224,-5.8205,-5.8206,-5.83,-5.8321,-5.8374,-5.8401,-5.8382,-5.8512,-5.8488,-5.8445,-5.8371,-5.8503,-5.8553,-5.8574,-5.8297,-5.8295,-5.8293,-5.8291,0,0,-5.8097,-5.8138,-5.8162,-5.8184,-5.822,-5.8271,-5.8349,-5.8403,-5.8438,-5.8475,-5.8537,-5.8621,-5.8581,-5.861,-5.8594,-5.8649,-5.8777,-5.8599,-5.8599,-5.8628,-5.8918,-5.8948,-5.8972,-5.8754,-5.8758,-5.8761,-5.8914,0,-5.8251,-5.8387,-5.8373,-5.8501,-5.8562,-5.8518,-5.8585,-5.8614,-5.8618,-5.8669,-5.8673,-5.8731,-5.8676,-5.8692,-5.8745,-5.875,-5.8834,-5.8739,-5.8809,-5.8812,-5.8799,-5.8999,-5.903,-5.9174,-5.8934,-5.8937,-5.894,0,-5.8448,-5.8493,-5.8628,-5.8655,-5.868,-5.8741,-5.8789,-5.8839,-5.8871,-5.887,-5.8903,-5.8877,-5.8953,-5.8881,-5.8984,-5.892,-5.8949,-5.8955,-5.8961,-5.8963,-5.8881,-5.9004,-5.922,-5.924,-5.8971,-5.8968,-5.8966,0,-5.8583,-5.8678,-5.877,-5.8791,-5.8825,-5.8869,-5.8885,-5.8912,-5.8946,-5.8988,-5.9009,-5.906,-5.9086,-5.9126,-5.9114,-5.9062,-5.9219,-5.9146,-5.9218,-5.9218,-5.925,-5.9248,-5.9471,-5.9274,-5.9274,-5.9274,-5.9273,0,-5.8755,-5.8838,-5.8831,-5.8888,-5.8979,-5.8963,-5.9054,-5.9064,-5.909,-5.9146,-5.9112,-5.9165,-5.9148,-5.9201,-5.9192,-5.9278,-5.9291,-5.9291,-5.9287,-5.9292,-5.9292,-5.9307,-5.9296,-5.9279,-5.9278,-5.9277,-5.9276,0,-5.892,-5.8919,-5.9016,-5.9041,-5.905,-5.9116,-5.9137,-5.9189,-5.9191,-5.9263,-5.9279,-5.9282,-5.9341,-5.9335,-5.9402,-5.9396,-5.9502,-5.9488,-5.9491,-5.9487,-5.9558,-5.955,-5.9796,-5.9826,-5.9614,-5.9616,-5.9618,0,-5.9027,-5.9091,-5.9123,-5.9159,-5.9179,-5.9238,-5.9272,-5.9259,-5.9295,-5.9337,-5.9384,-5.9441,-5.9486,-5.9583,-5.959,-5.9641,-5.9625,-5.9708,-5.9632,-5.9635,-5.9623,-5.9618,-5.9623,-5.9722,-5.9724,-5.9726,-5.9728,0,-5.9218,-5.9215,-5.9266,-5.9318,-5.936,-5.94,-5.9436,-5.9467,-5.9458,-5.9501,-5.9562,-5.9597,-5.9666,-5.9722,-5.9771,-5.9785,-5.9754,-5.9753,-5.9771,-5.9775,-5.9773,-5.9772,-5.9528,-5.9746,-5.9744,-5.9743,-5.9742,-5.9741,-5.9355,-5.9409,-5.944,-5.9499,-5.9525,-5.956,-5.961,-5.9619,-5.9671,-5.9726,-5.9716,-5.9784,-5.9814,-5.9876,-5.9896,-5.9948,-5.9918,-5.9946,-5.9952,-5.9959,-5.9966,-5.9769,-5.9958,-5.9957,-5.9957,-5.9956,-5.9956,0,-5.9541,-5.956,-5.9614,-5.9666,-5.9712,-5.9682,-5.9721,-5.976,-5.9822,-5.9853,-5.9898,-5.9968,-6.0023,-6.0035,-6.0087,-6.0127,-6.0114,-6.0141,-6.0136,-6.0139,-5.9991,-5.9968,-6.015,-6.015,-6.015,-6.015,-6.015,-6.015,-5.9643,-5.9732,-5.9733,-5.9834,-5.9851,-5.9919,-5.9944,-5.9975,-5.9999,-6.008,-6.0126,-6.0134,-6.0157,-6.0211,-6.0259,-6.0261,-6.0281,-6.0313,-6.0309,-6.0169,-6.015,-6.0131,-6.0109,-6.0318,-6.0318,-6.0452,-6.0453,-6.0454]},{"header":{"parameterUnit":"m.s-1","parameterCategory":1,"la1":30.2991,"la2":30.254,"lo1":-89.0895,"lo2":-89.0444,"dy":0.0017,"dx":0.0017,"nx":28,"ny":28,"refTime":"2025-04-18T21:00:00:Z","depth":0,"parameterNumber":3,"parameterNumberName":"V-component_of_WINDS"},"data":[0,0,0,0,0,0,0,0,0,0,0,0,0,0,0,0,0,0,0,0,0,0,0,0,0,0,0,0,0,0,0,0,0,0,0,0,0,0,0,0,0,0,0,0,0,0,0,0,0,0,0,0,0,0,0,0,0,0,2.9774,2.9774,0,2.9813,2.9813,2.9814,2.9783,2.9782,2.9781,2.9779,2.9816,2.9818,2.982,0,0,0,0,0,0,0,0,0,0,0,0,0,2.9671,2.9673,2.9774,2.9774,2.9775,2.9813,2.9813,2.9814,2.9784,2.9782,2.978,2.9779,2.9815,2.9818,2.9821,0,0,0,0,0,0,0,0,0,0,0,0,0,2.9713,2.9673,2.9774,2.9764,2.9764,2.9813,2.9813,2.9814,2.9784,2.9782,2.978,2.9778,2.9814,2.9818,2.9821,2.988,0,0,2.9831,2.9832,0,0,0,0,0,0,0,0,2.9711,2.9717,2.9765,2.9765,2.9765,2.9791,2.979,2.9836,2.9784,2.9776,2.9779,2.9777,2.9809,2.9813,2.9824,2.9882,2.9883,2.9831,2.9833,2.9835,2.9835,0,0,0,0,0,0,0,2.9708,2.9715,2.9789,2.9766,2.9766,2.9757,2.9761,2.9799,2.9803,2.9777,2.9775,2.978,2.9809,2.9821,2.9825,2.9884,2.9831,2.9834,2.9836,2.9837,2.9993,2.9995,0,0,0,0,0,0,2.9706,2.9713,2.9788,2.979,2.9733,2.9761,2.9765,2.9785,2.9803,2.9803,2.9782,2.9778,2.9817,2.9821,2.9826,2.9897,2.9835,2.9838,2.9839,2.9991,2.9994,2.9996,0,0,0,0,0,0,2.9704,2.9713,2.9786,2.9751,2.976,2.9765,2.9787,2.9787,2.9799,2.9806,2.9806,2.9794,2.9815,2.9821,2.9867,2.9898,2.9839,2.9842,2.9988,2.9992,2.9995,3.004,0,0,0,0,0,0,2.9701,2.9713,2.9736,2.9752,2.9762,2.9828,2.9789,2.9789,2.9805,2.9801,2.9818,2.9819,2.9814,2.9863,2.9871,2.9902,2.9845,2.9986,2.999,2.9994,3.0036,3.0044,3.0052,0,0,0,0,0,2.9698,2.9746,2.9737,2.9746,2.9791,2.983,2.9835,2.983,2.9808,2.9831,2.9836,2.9818,2.9894,2.9868,2.9876,2.9909,2.9984,2.9989,2.9994,3.0032,3.0043,3.0051,0,0,0,0,0,0,2.9731,2.9748,2.9738,2.9793,2.981,2.9825,2.9853,2.9841,2.9864,2.986,2.9852,2.9856,2.9904,2.9911,2.9882,2.9968,2.9935,2.9942,2.9961,2.9971,2.9979,2.9976,2.9847,0,0,0,0,0,2.9745,2.9776,2.9789,2.9836,2.9845,2.9848,2.9865,2.986,2.9877,2.9884,2.9892,2.9908,2.9936,2.9954,2.998,3.0037,3.004,3.0063,3.0071,3.0078,3.0084,3.0115,3.0126,3.0012,3.0012,3.0012,0,0,2.9774,2.9787,2.9806,2.9843,2.9856,2.9888,2.9854,2.9889,2.9912,2.9888,2.9933,2.994,2.9957,3.001,3.0033,3.0017,3.0116,3.0084,3.0089,3.0092,3.0122,3.0132,3.0142,3.0015,3.0015,3.0014,0,0,2.9842,2.9855,2.9897,2.9911,2.9932,2.9933,2.9944,2.996,2.9964,3.0009,2.9992,3.0019,3.0067,3.0081,3.0094,3.017,3.0155,3.0179,3.022,3.0251,3.026,3.0268,3.0296,3.0306,3.0185,3.0185,3.0185,0,2.9875,2.9923,2.9919,2.9956,2.9973,2.9954,2.9996,3.0009,3.0037,3.0049,3.003,3.0091,3.0102,3.0157,3.0176,3.0187,3.0198,3.0177,3.026,3.0268,3.0275,3.0301,3.0311,3.0188,3.0187,3.0187,3.0187,0,2.9963,2.9997,3.0027,3.0057,3.0077,3.0116,3.0117,3.0138,3.0131,3.0135,3.0181,3.0194,3.0222,3.0235,3.0228,3.029,3.028,3.0261,3.0228,3.0289,3.0313,3.0323,3.0192,3.0191,3.019,3.0189,0,0,3.0052,3.008,3.0091,3.0105,3.0127,3.0153,3.0192,3.0221,3.0239,3.0259,3.0291,3.0333,3.0316,3.0331,3.0326,3.0353,3.0414,3.0331,3.0331,3.0346,3.0483,3.0498,3.0509,3.0404,3.0406,3.0408,3.0482,0,3.0122,3.019,3.0188,3.0252,3.0283,3.0267,3.0301,3.0318,3.0323,3.035,3.0354,3.0384,3.036,3.0369,3.0395,3.0401,3.0441,3.0395,3.0433,3.0435,3.0429,3.0522,3.0537,3.0606,3.0491,3.0493,3.0494,0,3.0213,3.0238,3.0305,3.0324,3.0337,3.0368,3.0395,3.0421,3.0441,3.0442,3.0461,3.0452,3.049,3.0457,3.051,3.0479,3.0494,3.05,3.0502,3.0505,3.0468,3.0528,3.0628,3.0639,3.0509,3.0508,3.0507,0,3.0272,3.0322,3.0369,3.0381,3.0405,3.0427,3.0437,3.0455,3.0473,3.0497,3.0509,3.0536,3.0551,3.0573,3.0571,3.0547,3.0625,3.0592,3.0627,3.0628,3.0644,3.0643,3.0749,3.0654,3.0654,3.0654,3.0654,0,3.035,3.0392,3.0397,3.0425,3.0472,3.0469,3.0515,3.0523,3.0539,3.0569,3.0556,3.0584,3.0581,3.0609,3.0608,3.0652,3.0659,3.0661,3.066,3.0662,3.0662,3.0672,3.0667,3.0657,3.0656,3.0656,3.0655,0,3.0424,3.0428,3.0479,3.0498,3.0504,3.0537,3.0553,3.058,3.0585,3.0623,3.0631,3.0638,3.0671,3.0672,3.0708,3.0708,3.0762,3.0756,3.0756,3.0755,3.0791,3.0788,3.0906,3.0922,3.0818,3.0819,3.0819,0,3.0473,3.0506,3.0529,3.0549,3.0561,3.0593,3.0613,3.0611,3.0632,3.0657,3.0681,3.0713,3.0739,3.0791,3.0799,3.0827,3.0822,3.0861,3.0826,3.0827,3.0823,3.0821,3.0824,3.0868,3.0869,3.087,3.0871,0,3.0562,3.0563,3.0592,3.0622,3.0646,3.067,3.0691,3.0708,3.0709,3.0733,3.0767,3.0787,3.0826,3.0858,3.0886,3.0896,3.0884,3.0883,3.0892,3.0895,3.0894,3.0895,3.0775,3.088,3.0879,3.0878,3.0878,3.0877,3.0625,3.0653,3.0675,3.0708,3.0724,3.0745,3.0773,3.0781,3.081,3.0843,3.084,3.0878,3.0897,3.0934,3.0947,3.0976,3.0962,3.0976,3.098,3.0983,3.0987,3.0889,3.0981,3.0981,3.098,3.098,3.098,0,3.0713,3.0726,3.0757,3.0789,3.0815,3.0803,3.0827,3.0849,3.0883,3.0903,3.0929,3.0969,3.1,3.1011,3.1041,3.1062,3.1058,3.107,3.1069,3.1071,3.0998,3.0987,3.1074,3.1074,3.1074,3.1074,3.1074,3.1074,3.0761,3.0809,3.0813,3.0869,3.0882,3.092,3.0935,3.0954,3.097,3.1016,3.1042,3.105,3.1066,3.1098,3.1126,3.1128,3.114,3.1155,3.1155,3.1086,3.1076,3.1067,3.1057,3.1157,3.1157,3.1226,3.1226,3.1227]}]]